[[{"header":{"parameterUnit":"m.s-1","parameterCategory":1,"la1":30.2991,"la2":30.254,"lo1":-89.0895,"lo2":-89.0444,"dy":0.0017,"dx":0.0017,"nx":28,"ny":28,"refTime":"2025-11-15T03:00:00:Z","depth":0,"parameterNumber":2,"parameterNumberName":"U-component_of_WINDS"},"data":[0,0,0,0,0,0,0,0,0,0,0,0,0,0,0,0,0,0,0,0,0,0,0,0,0,0,0,0,0,0,0,0,0,0,0,0,0,0,0,0,0,0,0,0,0,0,0,0,0,0,0,0,0,0,0,0,0,0,-0.2643,-0.2643,0,-0.2631,-0.2631,-0.2631,-0.2634,-0.2634,-0.2634,-0.2635,-0.2621,-0.2621,-0.262,0,0,0,0,0,0,0,0,0,0,0,0,0,-0.2668,-0.2668,-0.2643,-0.2643,-0.2643,-0.2631,-0.2631,-0.2631,-0.2634,-0.2634,-0.2635,-0.2635,-0.2621,-0.2621,-0.262,0,0,0,0,0,0,0,0,0,0,0,0,0,-0.2657,-0.2667,-0.2643,-0.2643,-0.2643,-0.2631,-0.2631,-0.2631,-0.2634,-0.2634,-0.2635,-0.2635,-0.2622,-0.2621,-0.262,-0.2607,0,0,-0.2617,-0.2617,0,0,0,0,0,0,0,0,-0.2657,-0.2656,-0.2643,-0.2643,-0.2643,-0.2635,-0.2635,-0.2623,-0.2634,-0.2637,-0.2635,-0.2635,-0.2625,-0.2624,-0.2621,-0.2607,-0.2606,-0.2617,-0.2617,-0.2616,-0.2616,0,0,0,0,0,0,0,-0.2658,-0.2656,-0.2639,-0.2643,-0.2643,-0.2643,-0.2642,-0.2633,-0.2629,-0.2637,-0.2637,-0.2636,-0.2625,-0.2622,-0.2621,-0.2606,-0.2617,-0.2616,-0.2616,-0.2615,-0.2581,-0.2581,0,0,0,0,0,0,-0.2659,-0.2657,-0.2639,-0.2638,-0.2651,-0.2643,-0.2641,-0.2637,-0.263,-0.2629,-0.2636,-0.2636,-0.2623,-0.2622,-0.262,-0.2605,-0.2616,-0.2615,-0.2615,-0.2581,-0.2581,-0.2581,0,0,0,0,0,0,-0.266,-0.2658,-0.2639,-0.2648,-0.2645,-0.2642,-0.2637,-0.2636,-0.2633,-0.2628,-0.2628,-0.2633,-0.2623,-0.2621,-0.2611,-0.2605,-0.2615,-0.2614,-0.2582,-0.2581,-0.2581,-0.2575,0,0,0,0,0,0,-0.2661,-0.2658,-0.2653,-0.2648,-0.2645,-0.263,-0.2636,-0.2636,-0.2632,-0.2632,-0.2626,-0.2625,-0.2624,-0.2612,-0.261,-0.2604,-0.2614,-0.2582,-0.2582,-0.2581,-0.2575,-0.2574,-0.2573,0,0,0,0,0,-0.2661,-0.2652,-0.2653,-0.2651,-0.2639,-0.263,-0.2628,-0.2627,-0.2631,-0.2626,-0.2624,-0.2625,-0.2606,-0.2611,-0.2608,-0.2602,-0.2583,-0.2582,-0.2581,-0.2576,-0.2574,-0.2573,0,0,0,0,0,0,-0.2656,-0.2651,-0.2652,-0.264,-0.2636,-0.263,-0.2624,-0.2626,-0.2619,-0.262,-0.2619,-0.2617,-0.2606,-0.2603,-0.2609,-0.259,-0.2595,-0.2593,-0.2592,-0.259,-0.2589,-0.259,-0.2613,0,0,0,0,0,-0.2654,-0.2647,-0.2643,-0.2633,-0.263,-0.2628,-0.2624,-0.2623,-0.2618,-0.2616,-0.2612,-0.2607,-0.26,-0.2595,-0.2588,-0.2575,-0.2574,-0.257,-0.2568,-0.2567,-0.2566,-0.2559,-0.2557,-0.2578,-0.2578,-0.2578,0,0,-0.2648,-0.2645,-0.264,-0.2631,-0.2628,-0.262,-0.2626,-0.2618,-0.2612,-0.2615,-0.2604,-0.2601,-0.2595,-0.2584,-0.2578,-0.2581,-0.256,-0.2566,-0.2565,-0.2564,-0.2558,-0.2556,-0.2554,-0.2577,-0.2577,-0.2577,0,0,-0.2635,-0.2631,-0.2623,-0.2619,-0.2614,-0.2612,-0.261,-0.2605,-0.2603,-0.2593,-0.2594,-0.2588,-0.2575,-0.2571,-0.2567,-0.2553,-0.2554,-0.2551,-0.2543,-0.2537,-0.2535,-0.2534,-0.2528,-0.2526,-0.2549,-0.2549,-0.2549,0,-0.2628,-0.2618,-0.2618,-0.261,-0.2606,-0.2609,-0.26,-0.2596,-0.2588,-0.2585,-0.2588,-0.2573,-0.2569,-0.2556,-0.2553,-0.255,-0.2547,-0.2551,-0.2535,-0.2534,-0.2532,-0.2527,-0.2525,-0.2549,-0.2549,-0.2549,-0.2549,0,-0.261,-0.2603,-0.2597,-0.259,-0.2585,-0.2577,-0.2576,-0.2571,-0.2571,-0.257,-0.2559,-0.2555,-0.2547,-0.2544,-0.2544,-0.2531,-0.2533,-0.2536,-0.2541,-0.253,-0.2525,-0.2523,-0.2548,-0.2549,-0.2549,-0.2549,0,0,-0.2592,-0.2586,-0.2584,-0.2581,-0.2575,-0.257,-0.2561,-0.2554,-0.255,-0.2545,-0.2538,-0.2528,-0.2531,-0.2526,-0.2526,-0.252,-0.2509,-0.2523,-0.2523,-0.252,-0.2494,-0.2492,-0.2489,-0.251,-0.2509,-0.2509,-0.2494,0,-0.2578,-0.2564,-0.2564,-0.2551,-0.2544,-0.2547,-0.254,-0.2535,-0.2534,-0.2527,-0.2525,-0.2518,-0.2522,-0.252,-0.2514,-0.2511,-0.2503,-0.2512,-0.2503,-0.2502,-0.2503,-0.2487,-0.2484,-0.247,-0.2492,-0.2492,-0.2492,0,-0.2559,-0.2554,-0.254,-0.2536,-0.2533,-0.2527,-0.2521,-0.2515,-0.251,-0.2509,-0.2505,-0.2505,-0.2497,-0.2503,-0.2491,-0.2497,-0.2493,-0.2491,-0.2491,-0.2489,-0.2496,-0.2484,-0.2466,-0.2464,-0.2489,-0.2489,-0.2489,0,-0.2547,-0.2536,-0.2527,-0.2524,-0.2519,-0.2515,-0.2512,-0.2508,-0.2504,-0.2499,-0.2496,-0.2489,-0.2485,-0.248,-0.2479,-0.2484,-0.2467,-0.2473,-0.2466,-0.2466,-0.2461,-0.2462,-0.2442,-0.246,-0.246,-0.246,-0.246,0,-0.253,-0.2522,-0.2521,-0.2515,-0.2506,-0.2506,-0.2497,-0.2495,-0.2491,-0.2485,-0.2487,-0.248,-0.248,-0.2473,-0.2472,-0.2462,-0.2461,-0.2459,-0.2459,-0.2459,-0.2459,-0.2456,-0.2457,-0.2459,-0.2459,-0.246,-0.246,0,-0.2514,-0.2514,-0.2504,-0.25,-0.2499,-0.2492,-0.2489,-0.2483,-0.2482,-0.2474,-0.2472,-0.247,-0.2463,-0.2461,-0.2452,-0.2452,-0.244,-0.2441,-0.2441,-0.2441,-0.2434,-0.2434,-0.2411,-0.2408,-0.2428,-0.2428,-0.2428,0,-0.2504,-0.2497,-0.2493,-0.2489,-0.2487,-0.2481,-0.2477,-0.2477,-0.2473,-0.2467,-0.2462,-0.2455,-0.2449,-0.2437,-0.2435,-0.2428,-0.2428,-0.2421,-0.2427,-0.2427,-0.2428,-0.2428,-0.2427,-0.2419,-0.2419,-0.2419,-0.2418,0,-0.2485,-0.2485,-0.2479,-0.2474,-0.2469,-0.2465,-0.246,-0.2457,-0.2457,-0.2452,-0.2445,-0.244,-0.2432,-0.2424,-0.2418,-0.2415,-0.2416,-0.2417,-0.2414,-0.2414,-0.2414,-0.2414,-0.2437,-0.2417,-0.2417,-0.2417,-0.2417,-0.2417,-0.2471,-0.2465,-0.2462,-0.2455,-0.2453,-0.2449,-0.2443,-0.2442,-0.2436,-0.2429,-0.243,-0.2422,-0.2417,-0.2409,-0.2406,-0.2399,-0.2401,-0.2398,-0.2397,-0.2397,-0.2396,-0.2416,-0.2398,-0.2398,-0.2398,-0.2398,-0.2398,0,-0.2451,-0.2449,-0.2444,-0.2438,-0.2433,-0.2436,-0.2432,-0.2427,-0.2421,-0.2417,-0.2411,-0.2403,-0.2396,-0.2393,-0.2387,-0.2382,-0.2382,-0.238,-0.238,-0.2379,-0.2394,-0.2396,-0.238,-0.238,-0.238,-0.238,-0.238,-0.238,-0.2441,-0.2431,-0.2431,-0.2421,-0.2419,-0.2412,-0.2409,-0.2405,-0.2402,-0.2393,-0.2388,-0.2386,-0.2383,-0.2376,-0.2369,-0.2369,-0.2366,-0.2363,-0.2363,-0.2376,-0.2378,-0.238,-0.2382,-0.2363,-0.2363,-0.2348,-0.2348,-0.2348]},{"header":{"parameterUnit":"m.s-1","parameterCategory":1,"la1":30.2991,"la2":30.254,"lo1":-89.0895,"lo2":-89.0444,"dy":0.0017,"dx":0.0017,"nx":28,"ny":28,"refTime":"2025-11-15T03:00:00:Z","depth":0,"parameterNumber":3,"parameterNumberName":"V-component_of_WINDS"},"data":[0,0,0,0,0,0,0,0,0,0,0,0,0,0,0,0,0,0,0,0,0,0,0,0,0,0,0,0,0,0,0,0,0,0,0,0,0,0,0,0,0,0,0,0,0,0,0,0,0,0,0,0,0,0,0,0,0,0,-0.5932,-0.5932,0,-0.5954,-0.5954,-0.5954,-0.5969,-0.5969,-0.5969,-0.5969,-0.5991,-0.5992,-0.5992,0,0,0,0,0,0,0,0,0,0,0,0,0,-0.5902,-0.5903,-0.5932,-0.5932,-0.5932,-0.5954,-0.5954,-0.5954,-0.5969,-0.5969,-0.5969,-0.5969,-0.5991,-0.5991,-0.5992,0,0,0,0,0,0,0,0,0,0,0,0,0,-0.5919,-0.5903,-0.5932,-0.5942,-0.5943,-0.5954,-0.5954,-0.5954,-0.5968,-0.5969,-0.5969,-0.5969,-0.5991,-0.5991,-0.5992,-0.5994,0,0,-0.5994,-0.5995,0,0,0,0,0,0,0,0,-0.5918,-0.592,-0.594,-0.5941,-0.5943,-0.5959,-0.5952,-0.5968,-0.5968,-0.5959,-0.5969,-0.5969,-0.598,-0.5982,-0.5986,-0.5995,-0.5996,-0.5995,-0.5995,-0.5995,-0.5996,0,0,0,0,0,0,0,-0.5917,-0.5919,-0.594,-0.5941,-0.5942,-0.5946,-0.5948,-0.5955,-0.5968,-0.596,-0.5961,-0.5963,-0.5981,-0.5985,-0.5986,-0.5996,-0.5995,-0.5995,-0.5996,-0.5996,-0.6008,-0.6008,0,0,0,0,0,0,-0.5914,-0.5918,-0.594,-0.5941,-0.593,-0.5946,-0.5949,-0.5953,-0.5968,-0.5971,-0.5963,-0.5964,-0.5983,-0.5985,-0.5987,-0.599,-0.5995,-0.5996,-0.5996,-0.6008,-0.6008,-0.6008,0,0,0,0,0,0,-0.5913,-0.5916,-0.5939,-0.593,-0.5933,-0.5946,-0.5951,-0.5954,-0.5958,-0.5971,-0.5973,-0.5965,-0.5984,-0.5986,-0.5992,-0.5991,-0.5996,-0.5997,-0.6009,-0.6008,-0.6008,-0.5996,0,0,0,0,0,0,-0.5912,-0.5915,-0.5916,-0.593,-0.5933,-0.5944,-0.5951,-0.5954,-0.5959,-0.596,-0.5973,-0.5975,-0.5984,-0.5991,-0.5993,-0.5992,-0.5998,-0.6009,-0.6009,-0.6008,-0.5997,-0.5995,-0.5994,0,0,0,0,0,-0.5911,-0.5912,-0.5916,-0.5919,-0.5935,-0.5944,-0.5946,-0.5956,-0.5959,-0.596,-0.5968,-0.5975,-0.5991,-0.5991,-0.5994,-0.5993,-0.6009,-0.6009,-0.6008,-0.5997,-0.5996,-0.5995,0,0,0,0,0,0,-0.5898,-0.5914,-0.5919,-0.5924,-0.5932,-0.5946,-0.5947,-0.5954,-0.5961,-0.5962,-0.5974,-0.5977,-0.5982,-0.5988,-0.5989,-0.5996,-0.6001,-0.6001,-0.5991,-0.599,-0.5989,-0.5987,-0.5998,0,0,0,0,0,-0.5896,-0.5901,-0.5915,-0.5918,-0.5922,-0.5934,-0.5938,-0.5945,-0.5954,-0.5958,-0.5967,-0.5975,-0.5982,-0.5987,-0.5994,-0.5998,-0.6001,-0.5998,-0.5997,-0.5996,-0.5996,-0.5999,-0.5998,-0.6007,-0.6007,-0.6007,0,0,-0.5891,-0.59,-0.5903,-0.5916,-0.5923,-0.5929,-0.5937,-0.5943,-0.5947,-0.5959,-0.5965,-0.5972,-0.5982,-0.5987,-0.599,-0.5993,-0.5994,-0.5996,-0.5995,-0.5996,-0.5998,-0.5997,-0.5997,-0.6007,-0.6007,-0.6007,0,0,-0.5885,-0.5893,-0.5896,-0.5903,-0.5914,-0.5922,-0.5923,-0.5936,-0.5941,-0.5947,-0.5956,-0.5962,-0.5973,-0.598,-0.5985,-0.5982,-0.5988,-0.5984,-0.5978,-0.5981,-0.598,-0.5979,-0.5978,-0.5977,-0.5984,-0.5984,-0.5984,0,-0.5878,-0.5887,-0.5897,-0.5902,-0.5908,-0.5919,-0.5922,-0.5928,-0.5941,-0.5944,-0.5947,-0.5962,-0.597,-0.5977,-0.5976,-0.598,-0.5981,-0.5983,-0.5979,-0.5979,-0.5978,-0.5977,-0.5976,-0.5983,-0.5983,-0.5983,-0.5984,0,-0.5877,-0.5883,-0.5885,-0.5896,-0.5902,-0.5906,-0.5917,-0.5922,-0.5928,-0.5935,-0.5942,-0.5952,-0.5961,-0.5963,-0.5969,-0.5971,-0.5972,-0.5977,-0.5982,-0.5976,-0.5976,-0.5975,-0.5982,-0.5983,-0.5983,-0.5983,0,0,-0.5863,-0.5881,-0.5881,-0.5887,-0.59,-0.5904,-0.5909,-0.5918,-0.5922,-0.593,-0.5934,-0.5944,-0.5948,-0.5954,-0.5961,-0.5963,-0.596,-0.5968,-0.5968,-0.5966,-0.5961,-0.5957,-0.5957,-0.5964,-0.5964,-0.5964,-0.596,0,-0.5859,-0.5868,-0.5878,-0.5884,-0.5889,-0.59,-0.5904,-0.5912,-0.5919,-0.5925,-0.5933,-0.594,-0.5945,-0.5949,-0.5951,-0.596,-0.5959,-0.596,-0.5968,-0.5968,-0.5965,-0.5956,-0.5952,-0.5948,-0.596,-0.596,-0.596,0,-0.5856,-0.5863,-0.587,-0.5882,-0.5885,-0.5888,-0.5897,-0.5903,-0.5912,-0.5917,-0.5923,-0.5931,-0.5937,-0.5941,-0.5949,-0.5949,-0.5953,-0.5958,-0.5958,-0.5959,-0.5963,-0.5957,-0.5947,-0.5946,-0.596,-0.596,-0.596,0,-0.5845,-0.5857,-0.5862,-0.5866,-0.5881,-0.5883,-0.5889,-0.5899,-0.5904,-0.5912,-0.5915,-0.5923,-0.5928,-0.5934,-0.5943,-0.5946,-0.595,-0.5955,-0.5954,-0.5954,-0.5954,-0.5954,-0.5945,-0.5957,-0.5957,-0.5957,-0.5957,0,-0.5839,-0.5842,-0.5857,-0.5861,-0.5864,-0.5876,-0.5879,-0.5886,-0.5895,-0.5899,-0.5909,-0.5913,-0.5926,-0.5932,-0.5939,-0.5944,-0.5946,-0.595,-0.5952,-0.5949,-0.5949,-0.5952,-0.5952,-0.5957,-0.5957,-0.5957,-0.5957,0,-0.5828,-0.5838,-0.5844,-0.5857,-0.5861,-0.5863,-0.5874,-0.5877,-0.5885,-0.5891,-0.5893,-0.5905,-0.5912,-0.5922,-0.5933,-0.5938,-0.5941,-0.5945,-0.5938,-0.5939,-0.5937,-0.5937,-0.593,-0.5929,-0.5942,-0.5942,-0.5941,0,-0.5823,-0.5826,-0.5839,-0.5843,-0.5849,-0.5855,-0.586,-0.5871,-0.5875,-0.5886,-0.5888,-0.5896,-0.5903,-0.5914,-0.5924,-0.5931,-0.5935,-0.5932,-0.5936,-0.5933,-0.5934,-0.5934,-0.5934,-0.593,-0.593,-0.593,-0.593,0,-0.5814,-0.5819,-0.5826,-0.5834,-0.5839,-0.5847,-0.5854,-0.5857,-0.5869,-0.5874,-0.5881,-0.5887,-0.5897,-0.5905,-0.5914,-0.592,-0.5927,-0.5929,-0.5929,-0.5925,-0.5921,-0.5923,-0.5935,-0.5929,-0.5929,-0.5929,-0.5929,-0.5929,-0.5806,-0.5809,-0.5819,-0.5826,-0.5832,-0.5839,-0.5843,-0.5851,-0.5858,-0.5867,-0.5873,-0.588,-0.5889,-0.5902,-0.5908,-0.5914,-0.5917,-0.5917,-0.5917,-0.5916,-0.5915,-0.5921,-0.5915,-0.5915,-0.5916,-0.5916,-0.5916,0,-0.5797,-0.5804,-0.581,-0.5821,-0.5826,-0.5832,-0.5841,-0.5845,-0.5851,-0.5859,-0.5866,-0.5874,-0.5881,-0.5892,-0.59,-0.5902,-0.5905,-0.5904,-0.5904,-0.5905,-0.5912,-0.5911,-0.5901,-0.5901,-0.5901,-0.5901,-0.5901,-0.5901,-0.5793,-0.5798,-0.5804,-0.5813,-0.582,-0.5826,-0.5831,-0.5837,-0.5844,-0.5853,-0.5859,-0.5865,-0.5874,-0.5883,-0.589,-0.5893,-0.5895,-0.5892,-0.5896,-0.5903,-0.5904,-0.5906,-0.5905,-0.5893,-0.5893,-0.5888,-0.5888,-0.5888]}]]